Date,TemperatureHighF,TemperatureAvgF,TemperatureLowF,DewpointHighF,DewpointAvgF,DewpointLowF,HumidityHigh,HumidityAvg,HumidityLow,PressureMaxIn,PressureMinIn,WindSpeedMaxMPH,WindSpeedAvgMPH,GustSpeedMaxMPH,PrecipitationSumIn
2013-1-1,21,7,-9,17,3,-12,91,86,80,30.33,30.09,5,2,12,0.00
2013-1-2,30,19,7,28,16,4,94,91,85,30.19,29.99,10,2,27,0.00
2013-1-3,20,12,6,16,9,3,90,86,81,30.36,30.19,13,6,35,0.00
2013-1-4,28,20,13,21,16,10,91,81,71,30.21,30.12,5,2,10,0.00
2013-1-5,27,17,12,22,13,9,91,85,76,30.16,29.91,13,4,34,0.00
2013-1-6,23,16,11,17,13,7,92,86,76,30.29,30.09,10,4,26,0.00
2013-1-7,36,27,17,29,23,15,94,85,77,30.09,29.96,9,3,19,0.02
2013-1-8,35,24,11,32,22,9,95,90,84,30.03,29.79,6,2,15,0.02
2013-1-9,38,33,27,30,28,24,91,82,70,30.42,30.03,6,3,12,0.01
2013-1-10,35,34,33,34,31,28,98,88,79,30.35,29.75,5,4,13,0.16
2013-1-11,42,37,35,42,37,34,100,99,98,29.75,29.43,5,3,13,0.04
2013-1-12,35,17,8,34,12,2,98,80,72,30.14,29.50,11,6,24,0.00
2013-1-13,12,7,2,7,2,-2,88,81,74,30.30,30.10,9,4,29,0.00
2013-1-14,22,13,5,15,9,2,90,83,71,30.45,30.30,3,1,9,0.00
2013-1-15,33,22,13,21,16,9,86,77,59,30.34,29.93,8,4,19,0.00
2013-1-16,40,29,13,36,25,8,94,86,80,30.28,29.78,7,4,22,0.00
2013-1-17,30,18,7,23,12,1,87,77,58,30.46,30.28,5,2,17,0.00
2013-1-18,47,35,24,36,30,20,90,82,64,30.31,29.81,7,3,17,0.00
2013-1-19,43,30,7,36,25,1,90,81,72,30.32,29.78,22,6,47,0.00
2013-1-20,13,7,3,7,2,-4,84,79,74,30.45,30.32,12,5,29,0.00
2013-1-21,4,-2,-7,-4,-8,-13,81,73,67,30.42,30.34,12,7,34,0.00
2013-1-22,14,10,7,7,3,0,79,71,61,30.36,30.27,3,1,6,0.00
2013-1-23,19,12,-2,14,6,-8,86,77,66,30.61,30.17,15,4,40,0.00
2013-1-24,17,7,-2,5,-4,-9,76,61,46,30.68,30.19,8,4,19,0.00
2013-1-25,25,15,4,19,7,-1,81,72,55,30.34,30.05,22,6,46,0.00
2013-1-26,29,15,1,17,7,-3,86,70,56,30.37,30.10,8,3,17,0.00
2013-1-27,33,32,29,32,27,17,98,83,58,30.10,29.82,9,3,17,0.09
2013-1-28,34,32,29,34,32,29,100,99,98,29.93,29.63,0,0,0,0.08
2013-1-29,34,31,27,34,31,24,100,97,93,29.77,29.58,0,0,0,0.00
2013-1-30,26,17,6,25,14,2,94,87,83,29.86,29.69,15,5,34,0.00
2013-1-31,6,-2,-6,2,-7,-12,83,77,75,30.36,29.86,20,11,42,0.00
2013-2-1,15,4,-9,12,-2,-13,87,77,63,30.37,30.03,6,2,24,0.00
2013-2-2,26,14,2,24,10,-1,96,84,70,30.21,29.96,13,2,30,0.00
2013-2-3,20,16,9,18,12,5,92,84,76,30.15,29.90,11,3,31,0.00
2013-2-4,23,16,8,21,12,5,91,84,69,30.09,29.85,9,3,24,0.00
2013-2-5,35,24,11,32,21,8,95,88,78,30.14,29.75,14,3,27,0.00
2013-2-6,40,27,9,35,24,6,93,87,77,30.14,29.90,9,2,23,0.01
2013-2-7,34,26,23,32,25,21,97,95,90,30.28,29.96,5,3,17,0.01
2013-2-8,28,26,23,25,23,21,93,88,82,30.39,30.24,8,2,16,0.00
2013-2-9,34,30,26,31,27,24,93,91,88,30.25,29.93,9,6,23,0.00
2013-2-10,37,34,29,37,33,28,99,98,95,29.45,29.27,327,5,327,0.16
2013-2-11,29,26,24,28,24,20,96,91,85,30.04,29.45,14,10,25,0.16
2013-2-12,38,33,27,31,28,24,87,80,73,29.97,29.89,7,3,14,0.01
2013-2-13,27,25,23,24,22,21,92,90,87,29.89,29.85,1,0,4,0.01
2013-2-15,21,15,10,14,10,7,88,81,69,30.37,30.26,11,4,25,0.00
2013-2-16,28,20,14,22,16,11,89,82,71,30.33,30.11,5,2,21,0.00
2013-2-17,38,29,20,31,24,17,89,81,74,30.10,29.62,10,6,23,0.00
2013-2-18,36,24,5,33,20,1,96,84,76,29.94,29.59,20,8,42,0.00
2013-2-19,6,1,-3,2,-3,-8,86,80,75,30.42,29.94,17,9,44,0.00
2013-2-20,17,6,-6,10,1,-10,86,79,70,30.49,30.38,6,2,15,0.00
2013-2-21,27,17,8,17,12,5,92,80,63,30.42,30.03,11,5,19,0.00
2013-2-22,27,21,18,25,20,16,94,93,92,30.03,29.91,8,4,13,0.04
2013-2-25,29,29,29,25,25,19,85,85,85,30.09,30.07,1,1,6,0.00
2013-2-26,33,25,16,28,23,15,96,89,81,30.07,29.89,6,3,22,0.00
2013-2-27,28,23,20,24,20,18,92,90,84,30.08,29.89,8,4,24,0.00
2013-2-28,31,25,17,27,22,15,92,87,78,30.24,30.08,6,2,19,0.00
2013-3-1,29,24,14,22,19,11,88,81,70,30.39,30.23,7,3,13,0.00
2013-3-2,27,23,14,19,17,11,88,79,67,30.38,30.18,4,2,7,0.00
2013-3-3,33,26,18,25,20,15,90,78,64,30.19,29.96,10,5,19,0.00
2013-3-4,30,27,24,27,26,23,96,93,89,30.03,29.88,13,6,24,0.00
2013-3-5,30,27,26,28,26,25,96,95,92,30.04,29.97,4,2,12,0.00
2013-3-6,28,23,11,22,18,9,91,83,76,30.46,30.37,3,1,8,0.01
2013-3-7,28,16,1,23,13,-2,92,86,78,30.40,30.28,10,4,19,0.01
2013-3-8,37,29,18,34,26,16,93,87,77,30.32,30.09,10,5,22,0.03
2013-3-9,37,36,34,37,35,33,99,97,93,30.09,29.71,10,5,19,0.82
2013-3-10,34,32,28,34,31,26,99,95,90,29.96,29.78,8,5,24,0.05
2013-3-11,28,26,23,26,23,19,97,90,79,29.93,29.83,7,4,20,0.07
2013-3-12,30,26,20,27,22,17,93,84,76,30.27,29.91,16,6,35,0.02
2013-3-13,32,26,18,23,20,15,89,80,69,30.45,30.27,5,2,18,0.04
2013-3-14,26,25,24,23,22,21,89,88,86,30.29,30.20,4,3,11,0.04
2013-3-16,26,20,16,19,15,11,83,80,76,30.28,30.16,6,4,22,0.00
2013-3-17,32,22,12,27,17,7,86,79,70,30.29,29.86,10,6,24,0.00
2013-3-18,32,24,14,31,20,8,97,84,73,29.98,29.67,21,11,46,0.00
2013-3-19,25,16,10,15,9,5,80,73,61,30.20,29.98,19,10,35,0.00
2013-3-21,24,20,17,16,15,14,89,80,69,30.12,30.08,1,0,7,0.00
2013-3-22,30,24,17,23,19,14,91,80,68,30.14,30.09,4,0,8,0.00
2013-3-23,35,28,21,25,22,18,95,80,59,30.21,30.11,6,2,16,0.00
2013-3-24,33,28,24,28,24,21,93,86,74,30.16,29.99,8,4,22,0.00
2013-3-25,36,30,25,27,24,21,93,80,59,30.31,30.07,11,5,27,0.00
2013-3-26,39,28,19,29,23,17,91,81,60,30.36,30.30,7,3,24,0.00
2013-3-27,40,33,23,31,27,22,97,81,61,30.38,30.32,5,1,11,0.00
2013-3-28,47,38,30,39,32,26,92,81,69,30.37,30.28,6,2,11,0.00
2013-3-29,55,47,35,46,40,32,89,78,66,31.49,30.10,7,4,17,0.00
2013-3-30,54,46,36,49,40,-100,94,85,76,30.10,29.93,8,3,19,0.00
2013-3-31,39,34,25,34,29,19,98,82,59,30.17,29.91,17,7,37,0.00
2013-4-1,36,27,19,24,19,14,86,72,54,30.34,30.17,11,4,28,0.00
2013-4-2,40,30,20,27,22,18,94,74,47,30.39,30.32,8,2,20,0.00
2013-4-3,49,38,22,37,29,20,92,71,58,30.41,30.16,9,4,21,0.00
2013-4-4,52,42,33,38,33,28,90,71,52,30.23,30.11,7,4,17,0.02
2013-4-5,48,38,28,36,30,25,93,74,54,30.26,29.85,18,5,25,0.02
2013-4-6,60,47,38,48,40,33,94,77,64,29.85,29.56,12,7,25,0.06
2013-4-7,53,40,33,46,37,31,97,89,70,30.00,29.76,8,3,21,0.19
2013-4-8,57,49,39,51,46,38,99,90,80,30.02,29.67,9,4,19,0.19
2013-4-9,43,38,35,41,37,34,98,96,92,30.16,29.93,13,8,26,1.68
2013-4-10,35,34,33,34,32,31,96,95,94,30.13,29.98,16,8,32,1.79
2013-4-11,33,33,33,32,32,32,98,98,98,29.68,29.67,7,4,16,0.16
2013-4-12,35,31,28,32,29,27,98,92,82,29.93,29.68,8,3,15,0.03
2013-4-13,41,34,29,32,29,26,93,83,66,29.99,29.91,7,3,13,0.01
2013-4-14,49,38,33,47,36,30,97,92,79,29.92,29.41,11,7,22,0.15
2013-4-15,43,37,32,34,31,27,88,79,70,30.08,29.59,9,5,19,0.01
2013-4-16,49,38,32,36,31,28,88,76,56,30.35,30.07,6,3,13,0.00
2013-4-17,40,37,35,38,34,31,97,90,81,30.34,29.91,10,6,18,0.54
2013-4-18,36,33,31,35,32,31,98,98,96,29.93,29.61,8,5,18,0.49
2013-4-19,35,31,27,31,28,25,98,90,79,30.09,29.63,11,8,21,0.16
2013-4-20,43,33,21,33,25,19,92,75,52,30.32,30.08,6,3,12,0.10
2013-4-21,57,45,36,52,40,29,95,84,65,30.32,30.05,10,4,25,0.22
2013-4-22,40,36,31,38,35,31,99,96,91,30.23,30.11,7,4,15,0.33
2013-4-23,38,31,24,33,28,23,99,90,70,30.24,30.15,6,3,14,0.19
2013-4-24,28,27,26,24,23,23,90,88,84,30.16,30.14,2,1,5,0.18
2013-4-25,56,50,48,40,38,36,71,62,48,30.13,30.09,9,5,18,0.00
2013-4-26,74,59,47,47,42,37,79,55,30,30.19,30.02,8,4,20,0.00
2013-4-27,73,58,38,49,43,34,90,60,36,30.20,29.97,6,2,14,0.00
2013-4-28,82,64,49,54,48,46,89,62,28,29.98,29.70,15,5,24,0.01
2013-4-29,77,62,48,58,53,46,97,76,45,29.87,29.57,5,2,12,0.23
2013-4-30,70,65,58,61,49,32,84,58,29,30.01,29.49,10,4,18,0.00
2013-5-1,58,38,33,44,35,31,98,91,44,30.52,30.00,6,4,15,0.60
2013-5-2,48,39,34,34,32,29,97,76,53,30.58,30.45,9,4,19,0.18
2013-5-3,40,36,33,35,31,27,96,84,68,30.45,30.16,8,5,19,0.09
2013-5-4,44,38,34,43,38,33,98,96,95,30.21,30.10,8,4,17,0.12
2013-5-5,58,48,41,53,45,40,99,92,80,30.22,30.14,5,3,10,0.01
2013-5-6,74,58,42,56,49,41,97,76,44,30.18,30.07,4,1,8,0.00
2013-5-7,67,51,43,55,48,42,99,90,65,30.14,30.10,2,0,5,0.00
2013-5-8,59,58,58,58,57,56,97,96,94,30.02,30.00,0,0,2,0.01
2013-5-9,62,56,48,57,54,43,98,91,77,30.10,29.97,11,4,20,0.01
2013-5-10,69,53,39,46,35,-100,84,57,26,30.14,29.98,7,3,13,0.00
2013-5-11,58,49,39,45,29,-100,80,51,28,30.25,29.98,11,5,25,0.00
2013-5-12,62,47,32,28,24,21,72,44,21,30.30,30.15,8,2,18,0.00
2013-5-13,82,60,36,50,39,26,81,49,31,30.17,29.77,9,3,26,0.00
2013-5-14,101,78,51,58,48,33,84,41,17,29.79,29.55,11,4,31,0.00
2013-5-15,79,67,54,50,45,40,69,47,28,30.01,29.79,4,1,13,0.00
2013-5-16,67,60,53,62,50,42,91,71,52,29.95,29.90,2,0,7,0.03
2013-5-17,72,64,61,67,58,-100,98,91,83,29.98,29.90,9,4,17,0.56
2013-5-18,83,72,62,67,63,60,95,76,51,29.99,29.82,8,3,16,0.09
2013-5-19,76,70,64,69,65,63,97,85,76,29.84,29.70,8,4,26,0.22
2013-5-20,63,61,59,61,60,58,97,95,93,29.60,29.57,4,1,8,0.42
2013-5-21,63,59,55,58,54,52,97,85,72,29.72,29.55,5,1,10,0.20
2013-5-22,56,52,49,54,51,48,98,96,92,30.01,29.71,4,2,12,0.22
2013-5-23,64,55,46,50,44,37,95,69,37,30.36,30.01,9,3,19,0.01
2013-5-24,72,56,40,54,44,36,89,67,41,30.41,30.19,9,4,22,0.23
2013-5-25,57,54,52,52,51,50,96,89,79,30.26,30.20,11,6,21,0.41
2013-5-26,57,52,48,55,50,47,97,94,90,30.22,30.00,12,6,23,0.57
2013-5-27,59,56,54,58,55,53,99,97,95,30.04,29.83,10,5,21,0.05
2013-5-28,65,59,56,62,58,56,100,97,88,29.84,29.74,5,2,9,0.01
2013-5-29,75,66,54,70,63,54,100,92,81,29.84,29.69,7,3,21,0.05
2013-5-30,71,67,64,66,64,62,99,90,79,29.71,29.55,9,4,19,0.44
2013-5-31,77,68,59,63,56,51,93,68,43,29.65,29.58,9,4,23,0.37
2013-6-1,69,60,53,61,54,46,93,82,71,30.01,29.63,11,3,20,0.01
2013-6-2,69,58,51,49,44,39,87,63,36,30.15,30.01,5,2,14,0.00
2013-6-3,71,61,45,51,47,42,93,62,40,30.12,29.96,10,2,21,0.00
2013-6-4,63,59,55,58,54,49,96,86,60,30.11,29.99,9,4,21,0.25
2013-6-5,69,61,55,57,54,52,97,79,58,30.09,29.98,4,2,11,0.07
2013-6-6,62,57,53,55,53,52,98,87,74,30.08,30.00,6,1,11,0.00
2013-6-7,68,58,54,56,53,50,96,83,56,30.11,29.97,4,0,8,0.00
2013-6-8,64,59,51,61,55,49,96,89,78,29.98,29.88,8,2,15,0.28
2013-6-9,73,64,58,66,61,56,98,91,69,29.88,29.75,10,4,22,0.49
2013-6-10,75,64,57,65,62,57,100,91,69,29.95,29.85,4,1,9,0.05
2013-6-11,88,72,57,71,65,56,99,81,49,29.95,29.84,8,2,15,0.01
2013-6-12,78,69,61,72,66,58,98,93,82,31.05,29.73,11,3,18,0.06
2013-6-13,78,68,56,64,58,53,90,72,48,30.16,29.99,7,2,16,0.01
2013-6-14,75,69,61,65,62,58,92,78,67,30.14,29.90,11,4,21,0.01
2013-6-15,83,71,64,70,66,62,98,84,51,30.03,29.87,7,1,15,0.12
2013-6-16,85,72,57,63,57,50,98,65,30,30.02,29.93,9,1,14,0.10
2013-6-17,83,73,62,62,57,53,85,59,36,30.04,29.96,8,2,15,0.00
2013-6-18,77,69,59,65,60,57,96,75,55,30.13,30.03,6,2,15,0.23
2013-6-19,85,74,63,66,61,57,87,67,40,30.11,29.98,6,2,12,0.04
2013-6-20,88,77,70,71,66,63,79,69,50,30.05,29.95,7,3,18,0.00